SCP
0 0 0 0 0 0 0 -0 0 0 0 0 0 0 0 0 0 0 0 0 0 0
0 0 -0 0 0 0 0 -0 -0 0 0 0 0 0 0 0 0 0 0 0 0 0
0 0 0 0 -0 -0 0 -0 -0 0 0 0 0 0 0 0 0 0 0 0 0 0
0 0 0 0 -0 0 0 0 0 0 0 0 0 0 0 0 0 0 0 0 0 0
0 0 0 0 0 0 0 0 0 0 0 0 0 0 0 0 0 0 0 0 0 0
0 0 0 0 0 0 0 0 0 0 0 0 0 0 0 0 0 0 0 0 0 0
0 0 0 0 0 0 0 0 0 0 0 0 0 0 0 0 0 0 0 0 0 0
0 0 0 0 0 0 0 0 0 0 0 0 0 0 0 0 0 0 0 0 0 0
0 0 0 0 0 0 0 0 0 0 0 0 0 0 0 0 0 0 0 0 0 0
0 0 0 0 0 0 0 0 0 0 0 0 0 0 0 0 0 0 0 0 0 0
0 0 0 0 0 0 0 0 0 0 0 0 0 0 0 0 0 0 0 0 0 0
0 0 0 0 0 0 0 0 0 0 0 0 0 0 0 0 0 0 0 0 0 0
0 0 0 0 0 0 0 0 0 0 0 0 0 0 0 0 0 0 0 0 0 0
0 0 0 0 0 0 0 0 0 0 0 0 0 0 0 0 0 0 0 0 0 0
Wind_Speed_500mb
13 6 7 23 12 24 20 14 22 15 13 9 5 3 7 10 12 15 19 19 20 24
28 26 32 21 5 8 21 17 11 10 10 8 1 6 9 14 18 19 23 25 21 18
39 17 27 22 18 21 30 14 18 12 10 4 5 8 14 20 20 19 18 15 13 17
41 35 37 30 24 27 27 25 19 13 9 3 6 12 16 15 17 15 17 19 22 24
52 41 43 37 32 27 26 25 19 12 5 6 12 13 14 17 19 20 18 23 25 21
50 48 42 37 34 30 24 18 11 2 6 9 10 13 18 20 19 20 25 23 18 18
50 45 43 39 34 28 21 12 4 5 11 13 14 17 19 19 20 21 15 13 9 16
56 51 45 38 30 22 15 7 6 13 14 14 13 15 17 17 14 11 6 6 10 13
54 47 40 33 28 20 13 11 13 14 13 12 13 13 13 10 12 5 3 5 10 18
43 38 31 25 19 16 14 14 16 16 13 12 11 12 13 10 4 2 3 9 16 24
33 29 25 21 19 17 15 14 15 15 13 11 10 11 13 13 12 10 10 15 17 25
23 25 24 22 22 20 15 17 17 16 13 12 11 10 11 13 13 9 11 15 23 24
25 24 23 21 19 16 13 15 16 14 14 16 14 14 14 15 14 14 14 15 19 25
26 23 20 19 15 11 7 9 14 18 18 20 20 20 20 20 21 20 17 18 21 27
Wind_Direction_500mb
190 60 330 24 301 290 211 185 254 198 172 167 200 266 335 329 324 342 339 345 349 352
130 118 114 126 213 237 196 234 244 180 163 183 213 351 339 336 336 332 336 344 350 1
152 132 152 158 177 191 209 193 208 172 195 212 287 322 341 338 338 343 352 359 12 30
168 171 174 177 172 168 177 176 165 176 205 238 330 341 347 356 2 12 33 45 47 36
168 167 172 163 154 158 160 160 167 176 205 329 341 357 10 19 25 29 43 49 47 32
157 155 151 150 154 154 156 159 163 158 340 352 13 23 28 28 26 28 46 48 35 13
146 147 146 143 143 145 147 148 133 4 5 16 26 30 31 25 16 16 51 39 11 349
141 143 142 139 140 143 139 117 48 28 29 34 38 35 29 19 1 24 58 25 340 328
137 136 136 135 135 138 123 85 58 47 51 51 48 35 22 2 354 44 79 311 305 314
136 135 132 128 124 103 86 69 53 52 55 51 43 28 16 6 344 343 319 300 318 324
131 127 122 115 106 99 85 73 64 69 66 55 42 24 16 9 21 1 317 311 317 322
122 119 119 118 115 101 70 63 62 58 54 50 42 20 8 10 14 360 328 314 323 327
122 123 125 122 115 99 74 51 52 43 40 34 23 21 10 6 6 357 341 326 322 325
125 128 122 126 131 125 88 50 21 22 19 7 1 357 353 353 353 353 345 335 332 337
Wind_Speed_850mb
13 6 7 23 12 24 20 14 22 15 13 9 5 3 7 10 12 15 19 19 20 24
28 26 32 21 5 8 21 17 11 10 10 8 1 6 9 14 18 19 23 25 21 18
39 17 27 22 18 21 30 14 18 12 10 4 5 8 14 20 20 19 18 15 13 17
41 35 37 30 24 27 27 25 19 13 9 3 6 12 16 15 17 15 17 19 22 24
52 41 43 37 32 27 26 25 19 12 5 6 12 13 14 17 19 20 18 23 25 21
50 48 42 37 34 30 24 18 11 2 6 9 10 13 18 20 19 20 25 23 18 18
50 45 43 39 34 28 21 12 4 5 11 13 14 17 19 19 20 21 15 13 9 16
56 51 45 38 30 22 15 7 6 13 14 14 13 15 17 17 14 11 6 6 10 13
54 47 40 33 28 20 13 11 13 14 13 12 13 13 13 10 12 5 3 5 10 18
43 38 31 25 19 16 14 14 16 16 13 12 11 12 13 10 4 2 3 9 16 24
33 29 25 21 19 17 15 14 15 15 13 11 10 11 13 13 12 10 10 15 17 25
23 25 24 22 22 20 15 17 17 16 13 12 11 10 11 13 13 9 11 15 23 24
25 24 23 21 19 16 13 15 16 14 14 16 14 14 14 15 14 14 14 15 19 25
26 23 20 19 15 11 7 9 14 18 18 20 20 20 20 20 21 20 17 18 21 27
Wind_Direction_850mb
190 60 330 24 301 290 211 185 254 198 172 167 200 266 335 329 324 342 339 345 349 352
130 118 114 126 213 237 196 234 244 180 163 183 213 351 339 336 336 332 336 344 350 1
152 132 152 158 177 191 209 193 208 172 195 212 287 322 341 338 338 343 352 359 12 30
168 171 174 177 172 168 177 176 165 176 205 238 330 341 347 356 2 12 33 45 47 36
168 167 172 163 154 158 160 160 167 176 205 329 341 357 10 19 25 29 43 49 47 32
157 155 151 150 154 154 156 159 163 158 340 352 13 23 28 28 26 28 46 48 35 13
146 147 146 143 143 145 147 148 133 4 5 16 26 30 31 25 16 16 51 39 11 349
141 143 142 139 140 143 139 117 48 28 29 34 38 35 29 19 1 24 58 25 340 328
137 136 136 135 135 138 123 85 58 47 51 51 48 35 22 2 354 44 79 311 305 314
136 135 132 128 124 103 86 69 53 52 55 51 43 28 16 6 344 343 319 300 318 324
131 127 122 115 106 99 85 73 64 69 66 55 42 24 16 9 21 1 317 311 317 322
122 119 119 118 115 101 70 63 62 58 54 50 42 20 8 10 14 360 328 314 323 327
122 123 125 122 115 99 74 51 52 43 40 34 23 21 10 6 6 357 341 326 322 325
125 128 122 126 131 125 88 50 21 22 19 7 1 357 353 353 353 353 345 335 332 337